CST,Max TemperatureF,Mean TemperatureF,Min TemperatureF,Max Dew PointF,MeanDew PointF,Min DewpointF,Max Humidity, Mean Humidity, Min Humidity, Max Sea Level PressureIn, Mean Sea Level PressureIn, Min Sea Level PressureIn, Max VisibilityMiles, Mean VisibilityMiles, Min VisibilityMiles, Max Wind SpeedMPH, Mean Wind SpeedMPH, Max Gust SpeedMPH,PrecipitationIn, CloudCover, Events, WindDirDegrees
2012-11-1,35,30,26,30,25,21,87,80,69,30.15,30.10,30.03,10,10,7,17,11,23,0.00,8,,331
2012-11-2,30,28,26,25,24,21,93,81,74,30.21,30.18,30.14,10,10,7,12,7,16,0.00,5,,71
2012-11-3,37,32,28,30,27,25,93,84,75,30.27,30.23,30.20,10,9,2,10,5,,0.00,4,Snow,77
2012-11-4,33,28,24,28,25,21,93,87,80,30.26,30.24,30.21,10,9,0,13,7,,0.00,6,Fog,89
2012-11-5,42,35,28,34,29,25,93,80,57,30.26,30.05,29.68,10,9,1,12,6,21,0.14,7,Rain-Snow,158
2012-11-6,35,34,33,32,31,28,87,85,81,29.98,29.78,29.60,10,8,2,16,10,21,0.03,8,Rain-Snow,288
2012-11-7,39,36,33,34,33,30,87,86,81,30.06,29.97,29.82,10,10,10,13,5,,0.00,6,Rain,179
2012-11-8,41,36,30,36,32,25,93,84,75,30.20,29.94,29.72,10,10,5,18,11,25,0.05,7,Rain,298
2012-11-9,30,28,26,25,22,19,93,78,64,30.25,30.20,30.09,10,10,2,22,13,28,0.00,8,Snow,41
2012-11-10,32,29,26,28,26,19,93,86,69,30.09,29.79,29.48,10,4,2,22,17,28,0.10,8,Rain-Snow,69
2012-11-11,32,26,19,28,20,16,93,86,80,29.70,29.61,29.44,10,7,2,7,3,,0.07,8,Snow,249
2012-11-12,24,19,14,19,16,10,93,85,79,30.12,29.89,29.69,10,7,2,7,4,,0.00,7,Snow,264
2012-11-13,21,16,12,18,14,9,86,85,79,30.24,30.18,30.12,10,10,7,5,1,,0.00,4,,209
2012-11-14,35,24,14,32,23,10,93,85,79,30.22,30.10,29.95,10,8,4,10,2,,0.00,1,,181
2012-11-15,35,24,14,30,16,9,87,75,51,30.43,30.27,29.95,10,10,10,16,9,23,0.00,0,,270
2012-11-16,39,26,14,19,14,9,86,59,42,30.43,30.26,30.11,10,10,10,16,7,23,0.00,1,,173
2012-11-17,39,34,28,34,27,19,87,79,60,30.11,30.08,30.05,10,9,5,12,5,,0.00,1,,158
2012-11-18,48,39,30,37,33,27,93,80,66,30.06,29.99,29.93,10,9,5,9,4,,0.00,2,,122
2012-11-19,46,36,26,37,32,21,93,82,66,30.14,29.99,29.89,10,9,2,12,5,,0.00,1,Rain,241
2012-11-20,44,32,19,34,25,16,93,76,57,30.14,30.01,29.84,10,6,0,8,2,,0.00,2,Fog-Snow,176
2012-11-21,39,34,30,34,31,27,93,83,65,29.87,29.77,29.54,10,10,7,12,5,17,0.00,0,,76
2012-11-22,35,26,17,32,22,12,93,85,79,30.12,29.76,29.49,10,7,1,21,9,29,0.00,6,Snow,306
2012-11-23,17,10,3,14,8,0,92,80,68,30.40,30.33,30.13,10,8,2,18,12,28,0.00,4,Snow,308
2012-11-24,21,12,3,18,10,0,93,84,79,30.32,29.97,29.76,10,8,1,14,6,17,0.01,6,Snow,185
2012-11-25,21,10,0,18,7,-4,86,79,67,30.22,29.97,29.81,10,7,1,22,9,29,0.01,4,Snow,289
2012-11-26,21,6,-7,16,-1,-15,86,80,71,30.33,30.24,30.07,10,9,2,13,5,17,0.00,3,Snow,228
2012-11-27,24,12,0,19,6,-6,86,76,67,30.23,30.12,30.04,10,9,4,13,7,,0.00,5,Snow,297
2012-11-28,26,13,0,25,10,-6,93,83,73,30.24,30.13,30.00,10,9,5,16,6,24,0.00,6,Snow,249
2012-11-29,15,10,6,9,6,1,85,76,68,30.28,30.24,30.19,10,10,2,17,10,22,0.00,6,Snow,48
2012-11-30,30,21,12,27,17,9,93,84,79,30.25,30.10,29.88,10,8,2,15,11,16,0.00,8,Snow,126